Regional Weather Roundup
Issued by NWS San Diego, CA

Current Version | Previous Version | Text Only | Print | Product List | Glossary On
Versions: 1 2 3 4 5 6 7 8 9 10 11 12 13 14 15 16 17 18 19 20 21 22 23 24 25 26 27 28 29 30 31 32 33 34 35 36 37 38 39 40 41 42 43 44 45 46 47 48 49 50
000
ASUS46 KSGX 031911
RWRSGX

SAN DIEGO HOURLY WEATHER ROUNDUP
NATIONAL WEATHER SERVICE SAN DIEGO CA
1100 AM PST TUE MAR 03 2015

NOTE: "FAIR" INDICATES FEW OR NO CLOUDS BELOW 12,000 FEET WITH NO
SIGNIFICANT WEATHER AND/OR OBSTRUCTIONS TO VISIBILITY.

CAZ042-043-060-061-PZZ750-775-032000-

GREATER SAN DIEGO AREA

CITY           SKY/WX    TMP DP  RH WIND       PRES   REMARKS
LINDBERGH FLD  MOSUNNY   62  39  42 VRB3      29.96F
NATIONAL CITY    N/A     62  46  55 W1        29.95F
CHULA VISTA      N/A     63  47  56 W5        29.88F
IMPERIAL BEACH PTSUNNY   62  47  57 W9        29.95F
BROWN FIELD    PTSUNNY   62  43  49 VRB3      29.94F
MIRAMAR MCAS   MOSUNNY   63  43  48 NE5       29.93F
MONTGOMERY FLD MOSUNNY   61  42  49 CALM      29.94F

$$

NORTH SAN DIEGO COUNTY

CITY           SKY/WX    TMP DP  RH WIND       PRES   REMARKS
CAMP PENDLETON MOSUNNY   62  40  44 CALM      29.95S
OCEANSIDE AP   SUNNY     62  41  46 VRB3      29.94S
OCEANSIDE HBR    N/A     61  46  57 SW10      29.97F
VISTA            N/A     60  46  60 CALM      29.94F
CARLSBAD       MOSUNNY   61  41  47 W6        29.93F
DEL MAR          N/A     61  50  66 CALM      29.96F
LA JOLLA SCRIP   N/A     59  35  39 CALM      29.92F
FALLBROOK        N/A     60  44  57 CALM      29.95F
ESCONDIDO        N/A     61  43  51 E2        29.96F
SAN MARCOS       N/A     61  43  51 CALM      29.93F
POWAY            N/A     61  47  61 E1        29.97F

$$

EAST SAN DIEGO COUNTY

CITY           SKY/WX    TMP DP  RH WIND       PRES   REMARKS
RAMONA         MOSUNNY   56  40  55 SW3       29.93F
SANTEE LAKES     N/A     64  44  49 CALM      29.95F
LA MESA          N/A     60  43  54 CALM      29.90F
JAMUL            N/A     59  45  59 CALM      29.95F
DESCANSO N       N/A     50  40  68 W5        29.90F
MT. LAGUNA OBS   N/A     32  32 100 CALM      29.51S
CAMPO            N/A     53  37  54 W5        29.88F

$$

ORANGE COUNTY AND THE LOS ANGELES BASIN

CITY           SKY/WX    TMP DP  RH WIND       PRES   REMARKS
JOHN WAYNE AP  MOSUNNY   65  40  39 CALM      29.95F
LAKE FOREST FR   N/A     60  39  46 W3        29.86F
SANTA ANA        N/A     65  42  43 CALM      29.91F
HUNTINGTON BCH   N/A     65  47  52 CALM      29.98S
LOS ALAMITOS   MOSUNNY   62  43  50 W5        29.96S
FULLERTON      SUNNY     63  38  39 MISG      29.95F
LONG BEACH     SUNNY     64  42  44 VRB3      29.96F
L.A. AP        MOSUNNY   60  40  47 VRB3      29.96F
L.A. DOWNTOWN  SUNNY     64  38  38 VRB3      29.95F

$$

THE INLAND EMPIRE

CITY           SKY/WX    TMP DP  RH WIND       PRES   REMARKS
CORONA         SUNNY     60  41  49 CALM      29.97S
CHINO          MOSUNNY   59  39  47 VRB3      29.97F
ONTARIO        MOSUNNY   56  37  49 S3        29.96S
SAN BERNARDINO MOSUNNY   55  32  41 CALM      29.96S
RIVERSIDE AP   MOSUNNY   58  39  49 SE3       29.96S
RIV CYN CREST    N/A     58  49  72 S3          N/A
MORENO VALLEY    N/A     55  43  64 CALM      29.15S
MARCH ARB      SUNNY     54  38  54 VRB2      29.94F
HORSETHIEF CYN   N/A     55  38  53 NE2       29.96F
PERRIS           N/A     58  46  65 SW1         N/A
MENIFEE          N/A     57  44  62 CALM      30.06F
HEMET EAST       N/A     53  35  51 CALM      29.98F
FRENCH VALLEY  FAIR      55  37  50 CALM      29.95F
TEMECULA         N/A     57  45  64 E2        29.92F

$$

SAN BERNARDINO AND RIVERSIDE COUNTY MOUNTAINS

CITY           SKY/WX    TMP DP  RH WIND       PRES   REMARKS
BIG BEAR AP    SUNNY     36  25  64 E12       29.92S WCI  27
ANGELUS OAKS     N/A     37  30  75 CALM      30.04S
PINE COVE        N/A     38  34  87 CALM      30.08R

$$

SOUTHERN DESERT INCLUDING THE COACHELLA VALLEY

CITY           SKY/WX    TMP DP  RH WIND       PRES   REMARKS
PALM SPRINGS   SUNNY     62  37  39 CALM      29.96F
THOUSAND PALMS   N/A     65  41  42 E2        29.94F
PALM DESERT      N/A     66  41  40 SE2       29.01S
THERMAL        SUNNY     63  39  41 CALM      29.94F
BLYTHE         SUNNY     59  43  55 VRB3      29.96F
IMPERIAL AP    SUNNY     61  42  49 NW6       29.95F
EL CENTRO NAS  MOSUNNY   61  40  45 NW5       29.95F
YUMA AZ        MOSUNNY   65  40  39 CALM      29.93F
MEXICALI       MOSUNNY   61  43  51 NW5       29.95

$$

UPPER DESERT

CITY           SKY/WX    TMP DP  RH WIND       PRES   REMARKS
VICTORVILLE AP   N/A     52  32  46 CALM      29.95F
HESPERIA         N/A     50  34  55 CALM      30.15S
APPLE VALLEY     N/A     53  32  45 N2        30.01F
PALMDALE       SUNNY     52  34  50 NE5       29.97F
LANCASTER      SUNNY     55  35  47 VRB3      29.97F
EDWARDS AFB    MOSUNNY   51  35  53 E5        29.95F
DAGGETT        SUNNY     55  34  45 NW13      29.96F
29 PALMS N     MOSUNNY   54  34  46 VRB3      30.02F

$$

REGIONAL REPORTS

CITY           SKY/WX    TMP DP  RH WIND       PRES   REMARKS
SANTA BARBARA  SUNNY     61  45  55 S8        29.97S
SANDBERG       PTSUNNY   45  36  70 N16       29.97S
MT. WILSON       N/A    N/A N/A N/A MISG        N/A
LAS VEGAS NV   MOSUNNY   55  35  47 E3        29.90S
PHOENIX AZ     PTSUNNY   63  44  50 S7        29.92F
TIJUANA        MOSUNNY   61  39  44 SE5       29.96F
ENSENADA NW      N/A     62  32  32 W8        29.92F

$$

OFFSHORE ISLANDS

CITY           SKY/WX    TMP DP  RH WIND       PRES   REMARKS
CATALINA ARPT  SUNNY     52  30  43 NE5       29.96S
SAN CLEMENTE I MOSUNNY   59  49  68 E12       29.97S
SAN NICOLAS IS MOSUNNY   61  46  57 N10       29.97R

$$

MARINE AND OFFSHORE BUOY REPORTS

STATION/POSITION SKY/WX   TEMP    WIND        PRES    SWELL
                          AIR SEA DIR/SP/G            HT/PER/DIR
                          (F)     (DEG/KT/KT) (MB)    (FT/S/D)
TANNER BANKS               58 61   20/  8/ 10 1014.7R   7/310/11
S CLEMENTE BASIN           58 62   90/  6/  8 1014.0F   3/230/19
SAN NICOLAS IS.               60                N/A     3/310/11
SO. S. ROSA ISLA           57 59  360/  8/ 10 1015.1R   7/10
W. S. BARBARA CH           57 59  310/ 12/ 14 1015.0F   7/320/10
S. MONICA BASIN            57 62   10/  4/  6 1015.4R   2/220/19
S PEDRO CHANNEL               61                N/A     2/170/20
DANA POINT                    61                N/A     3/200/20
CMP PENDLETON NS              62                N/A     2/220/20
OCEANSIDE OFFSHR              61                N/A     2/200/20
TORREY PINES OTR              62                N/A     2/210/20
LA JOLLA 1                 60 62  300/  4/  4 1014.5F
MISSION BAY BUOY              62                N/A     2/200/18
SAN DIEGO BAY                 64              1015.0S
POINT LOMA SOUTH              63                N/A     2/190/20

$$



USA.gov is the U.S. government's official web portal to all federal, state and local government web resources and services.